This is the latest recevied weather packets stored in our database for station/object K3RUP-1. If no packets are shown the sender has not sent any weather packets the latest 10 day(s).
| Time | Temp. | Humidity | Pressure | Rain* | Wind** | Luminosity | Snow |
|---|---|---|---|---|---|---|---|
| 1777417095 | 15° C | 69% | 1017 hPa | 0 mm | - | 18 W/m² | - |
| 1777416790 | 15° C | 69% | 1016.9 hPa | 0 mm | - | 23 W/m² | - |
| 1777416485 | 15° C | 68% | 1016.9 hPa | 0 mm | - | 26 W/m² | - |
| 1777416181 | 15° C | 67% | 1016.8 hPa | 0 mm | - | 19 W/m² | - |
| 1777415876 | 15° C | 66% | 1017.1 hPa | 0 mm | - | 23 W/m² | - |
| 1777415572 | 15° C | 65% | 1017 hPa | 0 mm | - | 21 W/m² | - |
| 1777415268 | 15° C | 65% | 1017.1 hPa | 0 mm | - | 24 W/m² | - |
| 1777414963 | 15.56° C | 66% | 1016.9 hPa | 0 mm | - | 25 W/m² | - |
| 1777414663 | 15.56° C | 64% | 1017 hPa | 0 mm | - | 27 W/m² | - |
| 1777414358 | 15.56° C | 63% | 1017 hPa | 0 mm | - | 33 W/m² | - |
| 1777414052 | 15° C | 64% | 1017.2 hPa | 0 mm | - | 41 W/m² | - |
| 1777413747 | 15° C | 65% | 1017.1 hPa | 0 mm | - | 46 W/m² | - |
| 1777413443 | 15° C | 64% | 1017.1 hPa | 0 mm | - | 29 W/m² | - |
| 1777413140 | 15° C | 65% | 1017.2 hPa | 0 mm | - | 29 W/m² | - |
| 1777412835 | 15° C | 67% | 1016.9 hPa | 0 mm | - | 34 W/m² | - |
| 1777412535 | 15.56° C | 68% | 1017.1 hPa | 0 mm | - | 33 W/m² | - |
| 1777412232 | 15° C | 65% | 1017.1 hPa | 0 mm | - | 31 W/m² | - |
| 1777411928 | 15.56° C | 66% | 1017.1 hPa | 0 mm | - | 31 W/m² | - |
| 1777411627 | 15.56° C | 66% | 1017.1 hPa | 0 mm | - | 34 W/m² | - |
| 1777411322 | 15.56° C | 67% | 1017.1 hPa | 0 mm | - | 44 W/m² | - |
| 1777411021 | 15.56° C | 66% | 1017.2 hPa | 0 mm | - | 49 W/m² | - |
| 1777410715 | 15.56° C | 66% | 1017.2 hPa | 0 mm | - | 46 W/m² | - |
| 1777410410 | 15.56° C | 66% | 1017.1 hPa | 0 mm | - | 63 W/m² | - |
| 1777410109 | 15.56° C | 68% | 1017.2 hPa | 0 mm | - | 84 W/m² | - |
| 1777409804 | 16.11° C | 69% | 1017.3 hPa | 0 mm | - | 74 W/m² | - |
* Rain latest hour (hover to see other rain measurements)
** Current wind speed in m/s (hover to see current wind gust speed)